Theta_e
296 291 287 286 288 289 290 288 289 289 288 288 287 285 284 285 286 290 291 291 290 287 288 286 285 283 282 281 281 282 283 283 283 282 282 283 283 283 283 283 284 284 284 287 288 288 288 288 288 289 290 290 290 291 291 291 291 291 291 292 291 293 294 294 294 294 294 293 295 294 293 294 296 295 296 295 295 295 295 295 295 295 296 297 298 298
299 289 287 289 290 290 289 288 288 288 287 286 286 285 286 286 284 288 288 289 290 286 285 285 284 283 282 281 281 282 282 281 282 281 282 282 283 283 283 283 283 284 287 287 287 287 288 288 289 288 288 289 288 289 290 290 290 290 291 291 291 292 293 293 293 294 294 294 293 293 293 294 294 294 294 295 295 295 295 296 296 296 296 296 296 296
290 286 289 291 290 288 287 287 288 287 286 286 284 284 284 284 286 289 289 289 289 287 285 285 284 284 282 281 282 281 281 282 283 283 282 282 282 282 283 283 283 284 284 285 286 287 287 288 288 288 288 288 288 288 289 290 290 289 290 290 290 291 291 292 293 293 292 294 294 294 294 294 295 296 294 294 294 294 294 294 295 295 295 295 295 296
287 289 290 289 288 286 288 285 288 289 287 285 285 284 281 285 283 281 288 287 288 287 285 286 284 286 283 282 281 282 282 282 283 283 283 284 282 283 283 283 283 283 283 284 284 285 286 286 287 287 287 288 288 288 288 289 289 289 289 290 290 290 291 292 292 292 293 294 294 295 295 295 294 292 294 295 296 294 293 294 293 293 293 294 293 294
287 290 288 287 285 285 287 287 288 286 285 287 286 285 283 283 284 283 284 288 288 287 286 284 283 284 282 281 280 282 283 282 283 283 284 284 285 285 285 285 284 283 284 284 284 285 285 285 285 286 287 287 287 288 287 288 289 289 289 289 289 290 290 291 291 292 292 293 293 293 294 294 294 294 294 294 294 294 295 294 295 293 293 293 293 293
289 288 287 288 288 287 287 287 287 285 285 285 286 284 284 285 284 285 286 285 284 284 285 285 278 280 283 282 282 281 282 281 282 282 282 283 283 284 283 284 285 285 285 284 284 284 285 285 286 286 286 286 287 287 288 289 289 290 289 289 288 288 289 289 290 291 291 291 291 291 290 290 290 290 291 291 290 291 291 292 293 294 294 293 293 293
287 287 288 288 288 289 288 286 285 286 284 283 284 286 285 285 284 284 284 283 280 277 283 285 278 275 284 280 282 280 280 280 281 282 282 282 283 283 283 284 284 284 284 285 285 285 284 284 284 284 285 286 287 288 289 288 289 289 289 289 288 288 287 288 289 290 289 291 291 290 290 291 290 289 290 292 292 292 292 293 292 293 294 294 293 293
290 290 289 289 289 288 286 284 287 286 285 282 285 285 287 285 284 284 283 282 281 286 286 284 284 278 277 283 283 281 280 279 280 281 282 282 282 283 283 284 284 284 284 284 284 284 284 284 284 284 285 286 286 288 288 288 289 288 289 289 288 288 288 288 288 289 290 289 290 289 290 290 290 290 289 290 291 291 291 292 291 292 293 293 293 293
286 287 287 288 288 286 284 286 287 287 284 284 288 287 285 285 284 284 283 283 283 280 278 282 284 277 277 281 280 281 278 279 278 280 280 281 282 283 283 284 284 285 285 284 283 283 284 284 284 285 284 286 287 287 287 287 288 288 288 288 289 288 288 288 288 288 288 289 289 289 289 289 290 290 290 291 291 290 290 290 291 291 292 292 293 293
287 287 286 287 287 285 287 288 288 287 285 288 288 288 287 286 283 283 283 283 283 277 275 279 283 276 275 282 281 279 278 277 277 279 280 281 282 282 282 284 284 284 284 284 284 283 283 284 284 285 285 285 286 287 288 288 288 288 288 288 288 288 289 289 288 288 288 288 288 289 289 289 289 289 290 290 290 290 290 289 289 290 290 291 291 292
285 291 290 289 288 288 288 289 289 287 288 289 289 287 285 285 285 283 283 281 280 274 277 279 281 279 272 279 281 280 277 275 278 279 280 281 281 282 283 283 284 283 283 283 283 283 283 285 285 285 285 285 286 287 287 288 288 288 288 288 288 288 288 288 288 288 288 288 288 288 288 288 288 289 289 289 288 289 289 288 288 289 289 290 289 291
287 286 288 290 290 290 289 288 288 285 287 287 285 283 282 281 283 281 281 281 273 272 278 281 280 279 270 277 277 277 278 278 277 277 278 279 280 281 282 283 283 283 283 284 283 283 283 283 284 284 284 285 285 286 287 287 288 288 288 288 287 287 288 288 288 288 288 288 288 288 288 288 288 289 288 288 287 288 288 288 288 289 289 289 289 289
286 286 285 287 289 288 286 286 287 287 288 287 285 282 276 274 276 272 277 271 272 271 278 281 281 277 278 280 277 277 278 278 279 280 279 280 280 280 281 282 283 283 283 282 282 282 283 283 283 283 283 284 285 285 286 287 287 287 287 287 286 286 287 287 287 287 288 288 287 287 287 288 288 288 288 288 288 289 288 288 287 288 288 288 288 288
284 284 285 286 285 289 287 282 281 282 285 284 281 278 274 270 269 267 271 274 273 277 281 279 281 275 280 279 278 278 279 280 280 281 281 280 279 280 281 282 283 283 281 280 280 281 282 282 283 283 283 284 284 285 286 286 286 286 286 287 286 286 287 287 287 287 287 287 288 288 287 288 288 288 288 288 288 288 288 288 288 287 288 287 288 288
277 279 284 285 283 288 287 284 284 283 284 283 284 281 276 274 270 266 270 268 269 272 276 280 275 274 273 277 278 280 280 281 281 281 280 280 281 281 281 280 280 280 280 281 281 281 282 282 283 283 283 284 284 285 285 285 286 286 286 286 286 285 286 286 286 287 287 287 287 288 288 288 288 288 288 288 288 288 288 288 288 288 288 288 288 288
279 279 286 287 287 287 285 285 286 284 284 283 284 284 278 275 281 272 274 273 272 272 271 274 274 278 277 279 280 280 280 280 280 280 280 279 279 279 278 279 279 280 280 280 280 281 282 282 283 283 283 284 284 285 285 285 285 285 285 286 286 286 286 286 286 286 286 287 287 287 287 288 287 287 288 288 288 288 288 287 288 288 288 288 289 289
281 280 286 288 287 286 286 286 285 285 276 281 282 277 278 284 280 275 276 278 276 273 271 279 276 279 277 278 276 278 278 278 279 278 278 278 278 278 278 279 279 279 279 280 280 281 282 282 283 283 283 284 284 285 284 284 285 285 285 285 285 285 286 286 286 286 286 286 286 286 287 288 288 287 287 286 287 287 288 288 288 288 288 289 289 288
278 279 285 283 284 286 285 286 286 286 285 284 277 280 284 284 282 275 268 270 270 267 270 275 272 273 275 271 277 278 276 276 276 276 278 278 278 278 278 278 279 279 279 280 281 281 282 282 282 283 283 284 284 284 284 284 285 285 286 285 285 285 285 286 286 286 286 286 287 287 286 287 288 287 287 287 287 287 287 287 287 287 287 288 288 289
282 277 283 283 283 286 286 286 284 286 287 283 280 284 278 271 271 278 273 265 265 264 267 272 273 274 275 274 275 274 274 274 275 276 276 276 276 277 277 278 279 279 279 279 280 281 281 282 282 282 283 284 284 284 284 284 285 285 285 285 285 285 285 286 286 286 287 287 287 287 287 286 287 287 287 287 287 287 287 286 287 287 287 288 288 288
284 276 280 280 282 286 285 284 277 281 284 285 286 281 282 279 276 271 273 272 272 267 266 267 272 269 277 274 274 274 274 275 275 275 275 276 276 276 277 277 277 277 278 279 280 280 281 281 282 282 283 283 283 283 283 284 284 284 285 285 285 285 285 286 286 286 285 286 286 286 287 287 287 287 287 287 287 286 286 286 286 286 286 287 287 288
282 283 274 283 285 284 280 282 279 280 278 279 280 278 278 277 280 277 274 270 270 267 267 266 264 269 274 276 275 276 276 276 276 275 275 275 276 276 277 277 277 278 278 279 279 280 280 281 282 282 283 284 284 284 283 283 283 284 284 284 284 284 284 285 285 286 286 286 286 286 286 286 286 286 287 287 287 286 286 286 286 286 287 287 287 287
281 282 276 280 280 280 280 283 280 281 282 280 279 276 277 273 270 268 267 278 272 269 266 265 263 270 277 279 277 277 277 276 277 275 275 275 276 276 276 277 278 278 278 279 279 280 280 281 281 282 283 284 283 282 282 283 283 283 283 283 284 283 283 284 285 285 286 286 286 286 286 286 286 286 286 286 286 286 286 286 287 287 287 287 287 287
283 281 280 276 280 280 281 280 282 283 282 279 279 276 277 276 274 271 265 268 272 272 273 270 266 268 279 279 279 278 277 276 276 276 274 275 275 276 277 277 278 278 278 279 279 280 280 281 281 282 282 282 281 281 282 282 282 282 282 283 283 283 283 284 284 285 286 286 286 286 286 286 285 286 285 285 285 286 286 286 287 287 287 287 287 287
283 279 277 279 282 283 282 282 282 281 281 280 278 277 275 271 273 272 271 272 268 269 267 267 264 268 277 280 279 278 277 277 277 276 275 275 276 276 276 277 277 278 278 279 280 280 280 280 281 282 280 281 281 280 281 281 282 282 282 282 283 283 283 284 284 285 285 285 285 285 285 285 285 285 285 285 286 286 286 286 287 287 287 287 287 286
279 281 280 274 273 276 279 280 281 279 281 280 278 275 275 275 273 273 272 272 266 268 269 265 260 264 275 278 277 277 276 275 275 275 275 274 275 275 276 277 277 278 278 278 279 279 280 280 280 280 280 280 280 280 281 281 281 281 281 282 282 282 283 284 284 284 284 284 284 285 284 284 285 285 285 285 285 286 286 286 286 287 287 287 287 287
282 281 278 271 267 266 266 267 270 273 276 279 277 274 274 272 271 271 267 268 263 268 268 265 263 270 274 276 275 274 274 274 275 275 276 276 275 275 276 276 277 277 277 278 278 278 278 279 280 280 279 279 280 280 281 281 280 281 281 281 282 282 283 283 284 284 284 284 284 284 284 284 284 284 284 284 284 285 285 286 286 287 287 287 286 286
281 281 280 277 273 271 274 276 280 281 278 274 276 276 272 273 273 272 271 268 265 266 264 266 267 268 269 270 271 272 273 272 273 274 274 274 275 276 276 276 277 277 277 277 278 278 279 279 278 279 279 280 280 280 280 280 280 280 280 280 281 282 282 283 283 284 284 284 283 283 283 283 283 283 284 284 284 285 285 285 286 286 286 287 286 286
280 280 278 278 277 277 278 278 280 280 275 276 274 274 273 271 271 269 267 265 270 265 261 268 269 266 267 269 271 271 272 273 273 273 274 274 275 275 276 276 278 277 277 277 278 278 277 277 278 278 279 279 279 279 279 279 279 279 280 280 281 282 282 282 281 282 282 282 282 281 281 282 282 283 283 284 284 285 285 286 286 286 286 286 286 286
277 277 276 273 275 278 278 279 279 277 276 275 275 274 272 272 271 268 267 269 269 265 262 267 268 266 268 270 272 272 273 272 273 273 274 275 275 275 275 275 276 276 276 277 277 276 277 277 277 278 278 278 278 278 278 278 279 280 280 280 280 280 280 281 280 280 280 280 280 280 281 281 281 281 282 282 282 284 285 285 286 286 286 285 285 285
278 278 277 276 275 276 278 278 278 275 275 274 272 272 273 272 271 270 269 270 269 267 268 268 268 267 270 271 272 273 274 274 274 275 275 274 274 274 274 275 275 275 276 276 276 276 277 277 277 278 277 277 277 277 277 278 278 278 278 278 279 279 279 280 279 279 279 279 279 279 280 280 280 280 281 281 282 283 284 285 285 285 285 285 286 286
278 275 278 275 273 274 277 278 277 275 273 271 272 273 272 272 271 271 270 270 270 269 269 268 267 266 272 273 273 274 274 274 274 273 273 274 274 274 274 274 275 275 275 275 276 276 277 277 276 277 277 277 276 276 277 276 275 275 275 276 277 277 278 279 278 278 278 278 278 279 279 278 278 279 280 281 282 282 283 284 284 284 285 285 285 285
277 275 277 272 271 273 276 274 274 274 273 271 270 271 270 270 267 269 267 270 268 266 267 267 265 265 271 273 273 273 273 273 272 272 273 273 274 274 274 274 274 274 274 275 275 276 276 276 276 276 276 276 275 275 274 273 273 274 274 274 274 275 276 277 277 277 277 277 277 277 277 278 279 279 280 281 281 281 282 283 284 284 284 285 285 285
274 275 273 272 270 271 274 274 272 272 270 268 269 269 270 271 271 271 272 272 271 270 266 263 264 271 272 273 271 271 272 272 271 272 272 273 274 274 274 274 274 274 274 275 275 275 275 275 276 276 275 274 273 273 273 274 273 273 273 273 274 274 274 274 275 275 275 276 276 277 278 278 278 278 279 279 280 280 280 282 283 284 284 284 285 285
274 274 273 273 268 269 272 272 272 270 265 265 275 274 272 269 270 268 268 269 271 271 269 271 271 272 272 271 270 270 271 271 272 273 275 274 273 274 275 275 274 274 275 275 275 275 275 276 275 275 273 272 273 273 273 274 273 272 272 272 272 273 273 273 274 274 274 275 275 275 275 276 276 276 277 279 279 280 280 282 282 284 285 284 285 285
275 274 273 269 268 267 270 270 268 265 265 274 276 276 274 273 272 270 270 271 271 272 272 271 271 271 272 272 272 272 272 273 274 274 274 275 275 275 274 274 274 274 274 274 274 274 275 275 274 272 272 272 272 272 273 272 272 271 271 270 271 272 273 273 274 274 273 274 274 275 275 276 277 277 277 278 278 279 281 282 283 283 285 284 284 284
274 274 273 271 270 271 268 266 261 263 272 275 274 274 276 275 274 271 269 271 272 272 272 270 271 272 272 272 273 273 273 273 274 274 275 276 276 275 274 273 274 274 274 274 274 275 275 273 271 271 271 272 271 271 272 271 271 270 269 270 271 272 273 272 271 272 273 273 274 274 275 275 275 276 276 277 278 279 281 283 283 283 284 284 284 285
276 275 273 268 272 263 265 265 265 271 271 272 270 271 272 269 269 268 263 267 272 273 272 271 271 271 272 272 272 272 273 272 271 272 275 275 275 275 275 274 275 274 275 275 275 275 275 271 271 271 271 271 270 270 271 270 270 269 269 270 271 271 270 270 271 272 273 273 273 273 273 273 274 275 275 277 278 279 280 282 283 283 285 284 284 284
279 273 274 269 267 269 264 263 264 265 263 267 273 274 275 274 274 273 269 265 272 273 273 272 270 271 271 271 271 271 272 269 266 268 273 275 275 275 275 275 275 275 275 275 276 275 272 271 271 271 270 270 270 271 270 269 268 269 269 270 270 269 269 270 270 271 272 272 272 272 272 273 274 275 276 277 278 279 280 282 283 283 285 284 283 283
275 274 273 269 266 266 265 262 262 261 266 272 270 273 275 275 274 273 267 263 271 272 273 272 270 271 271 270 270 271 268 264 264 268 272 274 274 275 274 275 275 275 275 275 274 270 271 271 270 270 270 269 269 269 269 268 268 268 268 268 268 268 268 269 270 270 271 271 272 272 272 272 273 274 276 277 278 279 281 282 283 284 284 284 284 284
272 270 270 269 266 266 265 262 259 261 258 267 272 273 274 275 274 270 259 259 270 272 272 272 270 270 270 271 271 269 267 263 265 269 273 274 274 275 275 274 274 274 274 275 272 271 270 270 269 269 268 268 267 267 267 268 268 268 267 266 267 267 268 269 269 270 271 271 271 270 271 272 273 274 276 277 279 280 282 283 284 283 283 283 284 284
267 269 269 265 266 266 266 264 266 267 273 273 272 274 275 275 272 262 256 263 272 272 272 272 271 271 271 270 270 267 269 270 271 272 274 274 274 274 275 275 275 274 274 271 270 271 269 269 269 268 268 267 267 267 268 268 267 266 265 266 266 267 267 269 269 270 270 270 270 269 270 271 272 273 275 278 279 281 282 283 283 283 283 283 283 283
271 269 269 270 266 264 265 263 263 266 271 273 275 274 275 269 259 258 268 274 272 272 272 272 271 271 271 271 270 270 271 272 273 273 273 273 273 273 274 274 274 274 271 271 270 269 268 268 268 267 267 267 267 267 267 266 265 264 265 265 265 266 268 268 268 269 269 269 268 269 269 270 271 273 275 278 280 282 281 282 283 283 283 283 283 282
270 266 266 266 266 268 266 263 262 257 269 275 274 272 274 265 266 272 272 273 273 272 272 272 272 271 272 270 271 271 271 271 272 272 272 273 272 272 273 273 273 270 269 268 268 268 268 266 265 265 266 266 266 266 265 264 264 264 265 264 265 267 268 268 268 268 268 268 267 268 268 270 271 272 275 278 281 281 281 282 282 283 283 283 282 282
271 266 267 269 269 263 263 260 258 267 272 275 273 267 271 272 274 274 273 270 273 273 272 271 272 272 272 271 270 270 271 270 271 271 271 272 272 272 272 273 271 269 268 267 268 268 267 264 265 265 265 265 265 265 264 264 263 264 264 264 266 267 267 267 267 267 267 267 267 267 268 269 270 272 275 279 281 281 281 281 282 282 283 282 282 281
273 271 272 267 269 265 264 267 272 274 274 276 274 274 274 276 276 275 274 272 271 272 273 271 271 272 272 271 270 270 269 270 270 271 270 270 271 271 271 271 269 268 267 266 266 267 265 264 264 264 264 264 264 264 264 264 263 263 263 265 266 266 266 266 266 266 266 266 266 266 267 269 271 272 275 279 282 281 281 281 282 281 282 282 282 281
277 276 277 273 270 274 274 274 275 275 274 274 276 276 275 275 275 275 273 272 272 273 273 271 271 271 271 271 270 269 269 269 269 270 270 270 270 271 271 270 268 267 266 266 265 264 264 264 264 264 263 263 263 263 264 264 264 262 263 265 266 266 266 265 264 264 265 265 265 266 267 269 271 274 277 280 282 282 282 282 282 281 282 281 281 280
274 275 273 269 272 268 265 274 272 272 274 274 274 276 276 275 274 274 273 273 273 273 272 273 272 271 271 271 270 269 269 269 269 269 270 270 269 270 269 267 267 266 265 264 264 264 263 264 263 262 262 261 263 263 263 263 264 264 264 265 265 265 265 264 264 264 264 264 265 266 267 268 270 272 274 276 279 281 282 282 282 282 281 281 280 279
270 276 272 272 270 268 268 271 273 274 274 275 275 273 273 273 274 274 274 274 274 274 273 272 272 271 271 270 270 269 269 269 269 268 269 269 269 268 266 265 265 265 264 265 264 264 263 263 262 262 261 261 262 263 263 263 263 264 264 265 265 265 264 263 263 263 263 263 264 265 266 267 270 271 271 273 275 278 280 281 282 281 281 280 279 277
274 275 268 270 268 271 273 274 273 273 274 274 274 274 274 274 273 273 273 273 273 272 272 272 272 271 271 270 270 269 268 268 269 269 268 268 268 267 265 264 264 264 263 263 263 263 262 262 262 261 261 261 262 263 263 263 263 264 264 264 264 264 263 262 263 263 263 263 264 264 266 267 268 269 270 271 273 275 278 280 281 281 281 282 280 278
273 269 272 270 267 266 267 269 271 265 265 270 272 273 273 274 274 273 273 272 272 271 271 270 271 271 271 271 270 269 268 268 269 268 267 267 267 265 264 264 263 263 262 264 263 263 262 262 261 261 261 261 262 262 262 262 263 264 264 264 264 263 262 262 262 262 262 262 263 263 265 266 267 268 269 269 270 272 274 279 283 282 281 280 280 279
271 270 270 267 266 265 270 272 273 272 271 272 272 274 274 274 273 272 271 271 271 272 271 270 269 269 269 269 270 269 268 268 268 268 267 266 265 264 264 263 262 261 262 262 262 261 261 261 261 261 261 261 262 262 262 262 263 263 263 264 263 263 262 262 261 261 261 262 262 263 264 265 266 267 267 268 269 270 272 276 280 282 282 280 278 278
Wind_Speed
5 10 10 8 7 6 4 2 2 4 4 7 7 6 8 9 9 10 10 2 1 5 4 2 3 6 6 3 3 4 4 7 9 10 10 10 10 11 12 12 12 13 13 14 14 16 17 17 16 15 14 14 15 14 14 15 15 14 13 13 14 12 12 10 10 10 10 10 9 8 8 7 5 4 3 4 4 4 4 5 6 7 7 9 10 10
1 11 8 5 5 5 4 2 2 3 4 4 6 5 7 8 9 12 11 5 2 3 4 5 5 6 6 4 3 3 5 9 9 9 10 11 11 10 12 12 13 12 11 15 16 18 17 17 19 17 15 16 17 15 15 15 15 14 14 13 14 12 12 11 11 10 9 9 8 8 7 6 6 4 4 4 4 4 4 5 5 5 5 7 8 9
10 8 5 3 2 0 1 1 2 3 5 2 4 5 6 9 12 11 2 4 1 3 9 6 7 7 8 6 4 4 5 5 6 7 8 10 11 11 12 14 15 16 16 17 18 18 18 20 20 16 15 15 15 15 14 14 15 14 13 13 13 12 12 11 11 11 10 10 10 8 9 7 6 5 3 3 3 1 3 5 5 5 5 6 7 9
7 6 5 1 1 1 2 2 4 6 6 2 4 4 10 10 11 10 1 5 3 3 9 5 8 5 9 7 5 3 4 4 3 5 7 8 11 13 14 14 16 18 19 21 21 22 21 21 18 18 17 15 14 14 13 13 14 11 12 13 14 12 12 11 11 12 13 12 12 10 9 9 8 6 5 5 5 3 2 3 3 4 4 6 6 8
5 3 1 2 2 0 6 1 6 8 9 8 3 4 10 13 11 7 14 10 11 7 7 8 9 10 11 9 8 7 6 2 2 4 6 9 10 11 12 13 15 16 17 18 20 20 21 22 21 20 19 18 16 14 14 14 13 10 14 13 14 13 13 12 12 13 13 12 12 10 9 8 7 6 5 4 4 4 2 1 2 3 3 4 6 7
3 2 2 2 1 1 4 6 5 5 7 7 3 5 11 14 14 15 14 12 8 4 5 3 8 7 9 13 10 8 7 3 3 5 9 11 13 14 16 16 16 15 15 17 19 20 20 19 20 20 20 18 16 16 15 14 14 14 13 13 14 12 11 12 13 13 12 11 11 11 11 10 9 8 7 7 7 6 6 6 6 5 4 4 5 7
2 1 1 4 3 3 4 7 2 5 8 7 5 2 10 12 14 15 15 7 7 10 3 1 7 11 3 10 12 10 8 4 1 6 9 11 13 14 14 15 15 15 15 15 16 18 20 22 23 22 20 19 17 16 14 15 14 14 14 14 13 12 11 11 11 14 12 12 11 12 12 11 11 10 9 9 8 7 6 5 7 6 6 6 6 6
2 2 2 1 2 6 11 11 4 5 6 6 2 5 11 14 12 14 11 5 9 4 5 7 7 9 14 1 9 12 8 2 4 8 10 12 15 15 14 15 15 14 14 14 17 19 19 19 18 19 20 19 18 17 15 14 13 15 16 15 14 13 13 12 12 12 12 13 12 12 12 11 10 10 11 11 11 9 8 7 8 7 6 6 6 6
3 5 5 8 6 8 10 10 7 1 3 7 7 11 14 14 10 11 5 7 5 4 7 5 2 8 10 3 3 9 6 4 6 9 11 13 14 15 15 15 15 14 14 16 16 18 19 20 20 20 19 19 19 17 15 15 14 14 14 15 17 16 15 13 14 14 15 13 13 13 11 11 10 11 11 11 11 10 10 10 8 8 8 7 7 6
1 1 1 0 2 8 8 11 4 3 5 4 11 11 11 6 3 3 5 6 4 3 6 1 1 10 14 11 4 6 4 1 7 10 11 14 16 18 15 16 16 15 18 18 17 18 19 20 19 19 20 20 18 16 16 16 15 16 17 18 19 19 17 17 18 16 15 15 13 13 13 14 12 10 11 11 12 12 11 11 11 8 8 8 8 8
2 3 1 1 2 1 6 11 6 3 3 8 11 11 12 6 3 2 3 3 4 4 6 2 4 7 14 12 7 3 3 3 5 9 10 14 16 18 17 17 13 13 15 16 17 19 20 19 19 19 20 20 20 17 17 16 17 17 18 19 20 20 18 18 18 18 18 15 14 12 14 15 15 14 13 12 12 11 11 10 9 8 8 7 8 9
2 2 2 1 1 1 3 8 1 3 3 5 7 13 14 5 2 3 2 3 5 10 8 4 6 7 13 7 6 6 3 5 7 9 14 17 19 19 18 19 16 16 17 20 19 19 21 21 21 20 21 21 21 19 18 17 18 18 18 19 21 21 20 19 19 18 18 17 15 14 14 15 14 14 12 13 14 12 13 12 10 7 5 5 5 6
2 4 1 2 1 3 4 6 1 4 3 9 9 11 13 10 8 8 8 11 9 11 13 17 17 9 9 4 7 7 6 2 6 9 13 17 19 19 19 22 20 20 21 21 21 21 20 20 21 21 21 20 19 18 19 18 18 19 20 21 21 20 20 20 20 20 19 18 17 15 15 14 12 13 14 13 13 11 11 10 11 10 9 7 5 5
4 2 4 3 3 1 5 10 11 3 8 8 9 11 12 12 9 8 10 8 11 13 17 18 17 13 13 3 5 8 6 3 5 10 13 15 17 19 18 16 16 16 19 22 23 22 21 21 21 21 20 20 18 19 18 18 18 18 18 21 20 21 20 20 20 20 19 19 17 16 15 14 12 13 13 12 12 12 11 11 10 9 9 10 9 7
9 3 3 6 5 3 7 6 4 6 7 4 2 10 5 3 3 7 6 11 13 16 20 22 10 3 15 3 6 5 4 4 7 12 14 14 14 16 14 15 17 20 21 19 20 21 22 23 24 22 21 19 18 18 16 16 19 20 20 20 21 21 20 19 19 18 18 17 17 16 15 15 12 12 12 11 11 11 11 11 11 11 10 10 10 10
7 6 5 3 5 5 10 2 0 4 3 3 1 3 5 6 3 6 10 12 13 16 16 7 6 9 7 5 5 4 4 6 14 17 16 17 19 20 20 23 21 21 23 24 23 23 26 25 23 22 21 19 17 16 15 19 19 19 20 21 21 22 21 20 19 18 18 18 16 16 16 16 15 12 12 12 11 11 11 11 11 12 11 11 11 10
4 4 5 6 3 3 9 3 4 4 7 5 2 4 5 6 7 6 11 13 15 11 14 8 12 9 7 5 2 3 6 13 17 20 21 22 24 26 23 21 21 22 24 24 22 22 25 22 22 22 22 18 16 15 18 21 22 22 21 20 22 21 20 21 19 18 17 17 17 17 16 15 15 14 15 14 15 14 12 11 11 11 11 11 11 10
2 10 6 2 5 3 4 6 6 6 2 4 3 6 8 4 3 2 6 10 8 11 12 8 17 17 12 12 6 7 14 20 21 20 20 22 25 25 21 21 23 25 26 25 24 25 23 23 24 22 19 18 15 17 21 23 22 19 18 21 22 22 22 21 20 18 16 16 16 15 15 15 14 14 15 15 15 14 13 12 12 11 10 10 10 10
2 7 3 1 1 5 3 4 3 5 8 3 4 2 7 4 4 1 5 10 13 13 11 11 19 16 14 10 7 13 15 16 18 22 23 26 25 22 23 25 25 25 23 22 24 23 23 23 23 23 22 18 16 20 22 22 21 19 19 19 20 22 21 22 18 18 16 15 13 12 13 15 15 13 13 13 14 14 14 14 12 13 11 11 11 11
2 3 3 3 3 8 1 2 9 3 6 8 5 7 4 4 3 8 6 8 8 17 17 13 12 17 3 1 2 10 13 17 24 27 27 25 25 23 24 25 26 26 23 24 23 23 24 24 24 24 22 16 17 20 22 23 20 21 21 20 20 20 20 21 21 19 18 16 14 14 14 14 15 15 14 14 15 14 15 15 15 14 13 12 10 11
3 2 6 4 2 6 5 5 8 7 5 3 4 3 2 0 4 8 4 4 5 10 13 17 19 7 3 2 4 10 16 25 28 27 25 24 26 30 31 31 26 24 24 23 23 23 24 24 25 24 19 13 18 21 22 20 19 18 18 19 20 20 20 20 19 18 17 16 16 16 16 16 15 15 14 15 15 15 15 15 15 14 13 12 11 11
3 2 5 11 11 10 7 5 4 6 4 3 6 6 4 6 10 9 11 3 2 4 9 12 18 16 8 3 6 14 21 26 27 24 25 27 32 33 32 28 25 24 25 24 25 24 22 23 24 22 16 16 20 22 23 20 20 20 20 19 18 18 16 18 18 17 18 17 15 16 16 16 15 13 13 15 15 15 14 14 15 15 14 14 13 12
1 3 5 7 7 11 4 4 4 8 9 9 3 4 3 2 4 5 12 11 10 8 11 15 19 20 6 3 12 21 23 26 26 24 26 30 32 29 27 27 27 27 26 26 26 22 22 22 21 15 16 21 24 25 22 18 17 19 20 19 18 19 19 18 17 16 15 16 16 16 15 15 15 14 15 15 14 15 15 14 15 15 15 15 14 13
3 2 6 8 5 7 7 2 7 7 8 4 8 6 4 3 5 5 8 12 11 10 11 12 14 19 6 7 20 22 25 26 22 23 29 28 26 27 29 30 30 27 28 28 24 24 23 21 18 15 21 23 24 24 22 18 20 19 19 19 19 20 21 19 17 16 17 16 15 14 13 13 14 16 15 15 14 16 16 16 15 14 14 15 14 15
2 3 3 9 9 10 5 3 2 4 2 6 3 4 5 5 1 5 9 4 9 9 10 13 20 18 13 18 21 25 28 29 23 25 27 29 27 27 28 28 27 29 27 27 27 27 24 20 17 20 23 25 24 23 20 20 20 21 18 18 21 20 19 18 17 18 17 16 15 13 13 14 14 14 15 16 15 17 17 16 15 14 16 16 16 16
2 2 5 7 10 12 13 14 13 15 13 9 6 4 4 7 8 7 8 7 10 9 16 14 19 23 26 26 25 27 30 25 25 26 25 25 28 29 29 29 28 27 27 28 27 24 22 17 18 24 24 22 21 22 21 22 21 15 17 22 22 21 19 20 18 18 17 15 14 14 15 15 14 15 16 16 16 17 17 15 15 16 14 14 15 15
1 1 4 5 4 8 11 13 14 12 12 11 15 3 3 4 6 6 6 10 15 19 17 16 18 29 33 29 26 26 26 26 29 29 27 27 32 33 32 30 29 28 27 27 24 22 19 21 27 25 26 25 23 23 22 21 19 19 23 24 23 21 21 20 20 18 16 15 15 14 15 15 15 15 16 16 16 16 16 16 16 16 16 14 15 15
0 1 5 10 7 11 14 16 14 9 13 16 16 7 2 1 2 2 5 11 15 16 19 12 19 26 32 30 27 29 26 28 30 29 30 29 29 32 32 31 32 30 28 24 22 20 22 26 24 24 24 25 24 24 23 20 22 23 22 22 22 20 19 17 18 18 18 17 16 16 16 15 17 18 18 17 17 17 16 15 15 15 15 14 15 16
1 1 3 0 11 11 13 12 8 9 11 12 12 7 5 4 6 9 13 14 13 11 19 29 31 30 30 28 29 25 27 31 29 31 32 32 32 31 32 33 32 30 26 24 21 23 25 29 27 24 25 26 25 24 24 23 23 22 21 20 20 19 18 17 17 18 16 17 17 17 17 17 17 18 19 20 20 18 17 16 16 15 15 15 15 13
2 2 6 1 12 14 11 4 7 15 14 8 2 1 2 7 10 10 14 16 14 19 23 25 28 31 28 28 26 27 28 30 30 30 31 32 32 33 33 32 30 27 24 24 26 28 27 26 26 26 26 25 25 26 25 22 21 22 23 24 23 22 20 19 19 18 17 17 17 17 18 19 19 19 20 19 19 18 17 17 16 15 15 16 14 13
5 8 7 4 7 9 6 7 12 12 6 2 5 2 7 9 10 8 10 18 20 20 21 26 27 26 20 22 25 28 28 30 31 34 33 32 32 33 34 32 29 26 26 26 26 28 27 24 25 27 26 25 24 22 20 21 25 26 27 26 26 25 23 22 21 19 20 20 18 18 20 20 20 19 19 17 16 16 17 17 16 15 15 15 14 13
5 5 2 0 5 4 7 16 21 12 4 4 1 5 9 13 13 10 8 11 13 20 30 30 24 20 22 24 27 32 33 35 35 34 34 31 32 32 31 28 24 25 27 31 30 27 26 26 27 26 26 24 21 21 22 24 21 20 21 22 23 24 23 23 22 21 20 19 19 20 20 19 19 18 17 16 15 15 16 17 16 15 15 15 14 14
4 4 7 6 6 6 13 14 19 16 5 4 3 4 9 13 17 19 16 15 17 23 23 21 22 23 25 31 38 38 34 32 33 30 29 33 36 32 28 24 27 30 32 27 29 29 27 28 26 26 22 18 19 22 22 20 19 18 20 24 23 22 22 22 21 21 21 21 21 20 18 17 17 16 15 15 15 15 16 16 16 16 15 14 13 13
1 3 3 2 4 10 17 20 17 6 10 10 3 4 7 15 19 23 22 27 29 21 20 23 24 24 30 32 35 36 36 31 27 30 31 29 27 28 26 28 31 30 25 28 25 24 26 22 23 18 16 19 22 22 21 19 16 16 19 22 23 22 21 20 19 19 18 17 17 17 17 16 16 16 16 16 16 16 17 16 15 13 11 11 12 12
4 3 1 1 3 8 11 14 11 11 8 3 7 3 8 11 13 22 32 27 26 23 25 23 23 28 31 33 34 36 36 32 31 33 34 29 24 20 26 31 31 28 31 27 27 30 25 28 16 16 20 21 21 19 20 18 15 18 21 23 24 20 19 20 18 16 17 18 17 17 16 17 17 17 17 16 16 17 17 16 13 12 11 10 12 11
6 4 3 1 3 6 5 8 8 9 15 2 9 4 9 9 12 22 25 22 23 24 21 23 30 32 36 36 35 31 31 37 33 30 26 24 21 22 25 25 27 31 29 30 29 26 29 18 17 21 23 20 19 20 17 17 20 23 25 23 20 17 16 18 19 19 18 18 17 17 17 18 19 19 17 17 16 16 15 13 12 12 11 11 11 10
2 2 1 7 4 6 7 8 9 14 11 7 3 7 11 15 20 22 26 29 24 17 21 30 35 35 34 34 32 30 35 34 28 22 20 21 24 27 27 26 28 25 28 28 25 28 20 15 19 22 21 25 21 21 18 17 22 25 26 21 16 15 18 18 19 19 18 17 16 18 20 20 20 18 17 16 16 15 15 14 13 12 9 10 10 11
4 4 3 6 2 2 7 8 7 7 7 5 5 10 8 13 22 25 23 26 13 18 27 32 35 34 35 33 34 33 32 28 25 22 20 22 28 32 28 27 28 26 25 26 29 17 12 16 19 19 19 22 24 19 18 24 26 23 19 16 16 18 17 19 19 18 17 16 17 18 18 19 18 17 16 15 14 15 14 13 12 10 8 10 10 11
3 1 1 1 4 5 6 6 6 7 7 2 8 11 15 21 23 23 18 20 13 26 29 31 33 35 34 33 34 30 23 20 25 24 26 33 33 27 30 28 24 28 26 27 18 15 21 20 20 22 23 21 19 21 25 27 25 19 16 18 19 19 20 19 18 18 17 17 18 19 18 17 17 16 15 14 14 13 14 13 11 9 9 9 9 10
1 2 4 4 3 5 6 6 5 3 7 3 11 14 25 26 23 18 16 13 20 30 30 30 33 33 33 32 30 25 21 21 25 31 36 36 31 32 28 30 33 30 31 20 9 15 19 22 23 22 21 19 20 23 24 23 19 18 18 20 19 20 19 18 18 18 17 17 19 18 17 16 17 16 15 13 13 13 12 10 10 10 9 9 9 10
4 3 3 7 6 7 8 8 7 6 7 10 10 19 24 21 16 14 16 22 25 27 29 30 30 31 29 30 25 22 22 22 27 30 34 36 36 35 33 31 29 30 23 16 20 21 21 20 18 19 21 21 24 24 21 20 18 19 20 20 19 20 18 18 18 19 18 18 18 18 18 16 16 16 16 14 13 12 9 8 9 9 9 10 9 10
3 2 2 3 7 7 6 9 8 9 4 10 21 24 21 17 17 19 18 22 26 30 30 27 28 27 27 27 25 22 25 29 31 31 31 32 34 34 32 31 30 25 13 18 24 24 21 19 18 22 25 24 22 21 20 21 22 22 20 18 18 19 17 18 19 18 17 19 19 19 18 17 16 15 13 13 12 9 9 9 9 9 9 9 9 11
4 5 6 4 4 6 5 7 8 9 2 19 26 19 10 15 16 18 23 25 27 29 26 26 25 27 27 27 28 29 30 31 30 28 28 32 32 31 32 32 31 19 22 25 27 26 20 17 22 24 22 18 19 20 22 23 23 21 20 20 21 18 17 19 18 18 17 18 18 18 18 17 17 15 12 11 9 9 10 9 9 10 10 10 10 11
3 4 4 2 3 7 5 2 4 7 18 19 17 16 18 16 19 21 23 26 24 22 23 24 24 26 29 28 30 30 32 31 29 31 33 31 30 29 29 27 17 21 23 24 24 22 19 22 22 21 18 18 20 23 21 21 21 20 21 22 19 17 18 18 18 17 17 17 17 18 17 16 16 14 12 11 9 9 10 10 10 10 9 9 9 10
1 2 2 8 2 2 5 8 13 16 15 16 17 19 20 20 20 23 24 24 24 23 25 22 25 28 28 30 31 31 29 29 31 32 31 31 31 31 30 25 22 23 25 27 24 19 21 21 23 19 19 19 24 22 21 19 20 21 22 20 18 18 19 19 19 18 17 17 17 17 17 16 14 13 11 10 9 10 9 10 10 9 9 9 9 10
3 0 2 4 6 9 14 16 15 14 16 19 19 17 18 20 21 23 24 24 24 25 24 24 26 27 29 29 29 28 29 31 33 31 31 30 29 31 25 20 22 24 25 26 20 20 22 21 19 18 22 25 24 23 19 19 18 21 20 19 17 18 18 18 19 18 18 18 17 17 17 17 16 14 14 13 10 9 9 10 9 9 9 8 9 9
2 1 5 5 9 13 8 8 16 17 18 19 17 17 18 18 21 23 24 24 25 26 25 25 26 28 29 30 29 30 32 33 33 32 30 27 29 26 20 24 26 26 26 25 19 22 21 20 18 21 25 26 26 22 20 19 18 18 19 17 17 18 17 18 18 18 17 17 16 16 15 15 13 14 14 13 12 10 9 9 9 8 7 8 9 8
2 3 6 6 12 8 14 17 16 16 17 16 15 20 22 24 26 26 22 23 25 25 25 26 28 27 27 27 29 30 31 30 30 30 29 29 27 19 22 26 29 28 27 20 19 22 21 19 19 22 26 26 23 21 20 19 18 18 18 17 17 17 18 18 17 17 17 18 15 14 14 14 17 16 12 13 12 12 11 10 9 7 7 8 7 6
4 2 4 7 9 11 14 12 17 22 16 16 21 21 21 22 26 28 29 29 27 27 29 29 27 28 27 28 29 30 32 31 30 30 31 30 22 22 29 29 27 26 27 23 22 23 20 19 21 24 26 24 22 21 19 19 18 18 19 18 18 18 18 17 18 16 16 15 13 13 12 12 12 12 12 12 13 12 12 11 10 8 8 7 4 4
5 5 7 6 8 9 11 17 19 17 17 18 20 23 24 25 24 26 27 26 27 29 28 29 31 29 29 29 29 30 31 30 31 29 30 26 26 30 30 29 27 27 27 23 22 22 21 20 23 24 24 23 21 20 19 19 18 18 17 17 17 18 18 18 16 16 14 13 13 12 13 12 12 12 12 11 11 12 14 17 13 5 6 7 6 10
3 7 7 6 5 9 12 15 14 14 15 16 20 22 23 22 22 24 26 26 27 27 28 29 30 31 29 29 26 27 30 30 31 30 29 25 28 27 26 27 28 27 25 24 23 23 22 24 24 24 24 22 20 20 20 19 19 18 17 18 17 18 18 18 16 14 14 14 13 14 14 13 12 12 11 11 11 11 11 12 11 8 7 2 5 7
Wind_Direction
290 53 37 29 12 350 352 348 306 311 298 291 276 264 278 285 279 276 284 272 317 282 248 212 208 157 152 127 87 70 59 58 46 43 32 31 24 23 19 19 15 15 14 7 7 9 9 7 3 0 354 349 348 347 349 350 350 351 350 349 350 348 349 347 351 350 346 342 339 339 339 342 353 4 4 25 25 360 341 317 299 289 279 270 258 245
272 54 27 349 335 318 326 332 227 263 223 270 291 277 304 296 307 318 305 128 64 338 296 171 181 171 149 138 103 100 72 52 46 37 36 27 24 19 17 14 13 13 10 9 10 7 6 3 2 360 356 349 347 345 343 347 347 345 346 349 347 345 344 345 347 343 340 342 338 323 312 305 310 333 353 12 27 7 338 334 322 303 293 285 272 261
50 49 7 4 4 39 35 202 238 257 297 206 282 314 293 332 319 283 282 159 181 325 298 180 235 200 170 155 134 106 74 73 58 47 34 22 16 13 12 7 6 6 7 7 7 7 5 1 357 354 350 349 345 337 337 339 341 342 344 346 345 341 340 340 341 339 336 329 327 322 316 301 282 263 259 284 282 327 359 346 334 316 304 292 285 276
52 40 21 58 105 314 216 210 271 286 207 276 323 316 343 330 346 325 62 133 153 290 285 238 255 228 169 167 148 133 104 97 74 57 40 23 16 13 9 7 3 5 4 4 3 1 358 355 352 349 346 342 336 335 335 336 335 335 339 340 342 338 336 334 338 335 330 326 320 313 306 302 299 300 270 231 241 225 227 284 281 280 285 289 283 280
65 44 92 114 113 280 338 292 343 354 348 343 315 319 327 332 312 283 301 306 299 260 259 256 260 242 180 186 182 167 159 117 73 44 32 24 19 11 4 6 8 4 0 357 357 356 354 352 349 345 340 337 334 332 333 333 331 329 333 336 338 337 336 333 331 333 331 326 323 323 319 316 301 292 294 318 354 357 343 271 286 318 293 274 270 266
107 116 194 242 147 222 310 13 28 347 336 330 139 342 323 310 307 297 292 317 310 244 159 306 316 300 175 199 183 158 183 164 64 23 26 14 11 6 3 0 359 359 0 358 353 351 347 344 341 341 338 334 328 329 330 328 324 323 326 330 335 337 333 330 331 329 327 326 324 326 327 325 325 323 325 334 341 343 340 343 338 319 323 299 273 267
358 139 181 15 351 273 350 9 84 344 338 321 21 291 317 304 296 295 301 327 302 325 85 204 294 296 181 188 183 166 169 134 52 33 15 12 7 4 359 354 354 350 350 350 349 347 346 343 338 337 337 333 328 326 326 325 322 317 318 324 328 332 332 325 323 328 325 322 322 322 319 315 314 312 314 319 326 329 325 328 328 328 335 326 314 295
310 356 6 121 353 359 7 359 43 4 320 340 97 328 310 294 293 293 307 271 264 318 270 206 237 280 301 312 173 165 171 195 23 10 8 6 0 358 351 349 347 344 344 342 342 340 338 336 332 330 329 331 328 323 321 322 321 319 318 319 321 324 326 326 324 321 322 318 317 313 311 312 313 312 312 315 314 316 322 322 324 328 326 323 325 317
49 340 16 11 1 13 3 332 328 183 311 303 326 324 303 292 291 286 292 278 288 342 313 154 173 282 287 347 140 158 198 190 5 0 359 359 354 349 345 343 341 337 336 335 334 335 336 334 331 329 328 324 322 322 321 320 319 317 314 314 317 319 319 318 321 318 319 317 313 309 305 305 305 307 308 309 309 311 314 315 321 323 322 320 319 314
187 7 331 210 354 18 328 321 345 195 298 337 317 289 267 263 257 253 277 285 263 307 313 22 288 310 293 306 202 164 193 17 7 356 352 357 349 344 341 336 335 337 336 333 328 329 329 328 325 324 324 323 324 320 318 316 314 314 317 316 316 317 320 322 321 319 317 317 314 308 306 303 302 301 301 301 304 307 309 309 312 318 321 318 316 314
329 70 13 234 60 8 317 314 307 242 271 291 287 308 315 270 230 140 243 276 283 267 325 92 300 315 299 291 317 151 70 62 348 347 350 346 343 342 338 333 328 328 325 324 320 324 325 324 323 325 324 324 323 321 316 315 315 318 319 320 319 318 315 315 317 316 315 314 312 306 303 301 301 301 302 302 299 302 302 301 303 306 310 315 314 314
112 222 199 127 274 271 228 293 103 103 207 279 349 351 328 2 280 198 226 225 333 302 308 315 317 304 292 304 88 85 116 162 4 350 346 343 344 341 337 334 329 324 324 325 327 327 327 325 327 329 328 326 322 318 316 314 316 320 321 320 318 315 313 314 315 315 312 310 307 304 303 302 301 302 303 302 303 302 303 302 296 287 276 277 292 300
91 111 111 176 236 279 310 267 161 164 352 9 1 3 8 344 348 348 359 339 326 298 296 312 326 303 259 349 122 129 93 24 12 348 346 343 337 338 336 335 329 330 331 333 332 326 324 327 329 329 326 322 318 316 316 317 320 320 319 319 315 312 313 311 311 310 307 306 305 304 304 303 302 301 303 302 300 299 301 303 302 299 297 289 280 277
341 156 354 11 157 260 311 359 353 5 1 15 20 16 16 2 0 326 326 302 292 287 302 310 334 289 288 129 148 133 61 7 349 347 337 336 337 338 334 331 330 331 334 332 327 325 325 325 325 324 322 320 317 315 318 319 320 318 317 318 314 311 311 309 308 308 305 304 301 304 303 302 303 303 303 302 301 302 299 300 298 294 291 291 287 272
348 359 75 18 23 15 13 44 336 287 327 31 72 35 59 27 310 300 313 317 299 293 304 304 307 299 314 69 165 113 32 339 354 346 338 340 342 339 335 337 333 332 334 333 327 324 323 322 321 321 322 319 318 317 320 322 319 318 316 317 314 312 311 310 308 307 303 303 301 303 301 301 302 302 301 299 298 299 300 299 297 292 288 284 282 282
329 263 284 91 297 346 7 44 236 307 234 130 144 87 29 357 305 270 289 289 289 300 302 286 250 282 306 99 128 145 341 334 350 347 345 352 350 337 337 339 337 333 330 327 322 320 323 323 321 322 321 319 318 320 322 323 321 316 314 313 313 312 311 310 309 307 305 306 303 302 301 302 301 296 295 294 293 293 294 295 293 291 287 284 281 280
307 301 23 348 121 24 22 8 26 308 353 344 293 28 347 294 219 256 277 270 285 277 262 279 285 302 123 150 47 217 329 354 351 352 352 346 341 343 343 330 324 324 324 322 318 320 322 320 320 321 319 315 318 324 324 323 320 316 313 313 313 313 310 309 308 306 303 303 299 298 298 298 298 295 295 295 294 293 290 289 288 287 288 286 283 280
325 298 319 311 316 78 75 99 68 12 298 296 321 14 296 191 204 155 301 304 285 284 284 301 297 303 322 313 129 351 355 357 352 344 339 338 345 341 328 322 320 321 321 318 317 320 321 319 321 321 316 312 318 323 325 323 320 316 315 314 314 314 311 310 309 307 305 303 297 294 293 294 293 293 293 293 292 292 291 287 287 286 285 283 283 281
270 284 287 190 323 288 124 170 145 67 4 64 74 248 347 350 290 322 303 302 312 290 287 291 292 295 307 306 8 354 355 344 337 335 340 343 337 326 322 320 319 318 320 320 321 322 322 322 320 321 318 309 317 323 327 323 318 315 316 316 312 311 311 310 309 306 303 301 297 296 294 294 296 293 293 290 292 292 288 288 287 286 282 281 279 280
255 292 307 143 300 325 327 5 351 20 93 87 96 58 40 300 301 321 312 295 289 297 319 303 310 301 330 113 324 338 344 341 343 340 335 333 330 325 322 318 317 319 319 322 324 323 322 319 319 320 317 313 319 325 327 322 317 316 316 315 314 312 311 311 309 305 305 301 298 296 293 296 300 299 295 296 293 292 292 291 289 288 285 280 279 278
284 199 292 313 223 272 8 15 353 332 330 324 321 58 2 80 241 233 222 212 267 299 305 307 307 308 83 106 1 336 345 349 341 333 331 328 325 323 319 318 318 320 322 324 324 324 324 320 320 319 316 316 320 326 325 320 317 316 316 314 314 315 313 310 307 304 304 301 299 297 296 302 304 302 300 297 297 294 291 289 288 287 286 284 279 278
296 218 284 317 334 358 347 57 342 3 24 11 353 337 335 346 346 343 307 184 54 318 287 303 291 291 320 62 345 345 349 338 337 339 330 325 320 319 321 320 322 323 322 324 325 324 324 323 323 320 325 321 326 328 326 321 319 320 318 316 314 315 312 310 308 306 305 305 300 295 299 305 306 302 300 297 294 292 291 288 285 286 284 281 280 278
288 287 273 297 329 318 66 61 38 86 83 82 66 81 48 68 341 351 319 311 310 295 286 277 295 292 83 202 339 344 335 335 335 330 325 325 323 319 320 322 323 323 324 323 325 323 323 323 321 327 327 324 327 326 321 320 320 317 317 316 315 314 312 311 309 306 303 300 300 300 301 304 304 304 301 298 294 291 290 285 282 281 280 280 281 277
287 295 307 304 293 242 130 98 115 126 139 129 76 70 67 44 31 328 287 302 301 304 302 306 272 277 297 331 339 331 328 328 329 327 325 322 322 320 320 322 323 322 323 324 322 323 324 322 325 329 330 330 327 324 321 322 319 318 318 316 316 314 313 310 310 310 308 302 298 297 297 298 303 305 306 304 301 297 293 291 285 282 277 274 271 273
320 62 321 322 339 336 358 177 152 178 262 346 12 63 61 83 32 266 249 244 281 284 288 305 290 295 305 327 325 323 321 325 328 327 324 320 320 319 321 322 323 321 321 320 322 324 322 324 331 330 330 330 325 325 321 319 317 320 319 319 317 312 310 308 307 308 306 302 300 301 303 303 303 303 304 305 303 298 294 292 291 283 279 279 277 277
293 357 354 12 352 338 332 331 332 331 332 322 120 127 93 65 43 0 318 312 283 284 304 292 285 281 299 314 317 318 320 322 323 321 316 319 322 322 322 322 321 323 321 321 322 321 326 330 328 327 328 327 326 323 321 322 323 321 317 318 316 312 309 308 307 305 304 302 303 308 308 306 305 304 304 301 298 297 294 290 288 287 284 278 278 274
71 197 47 15 316 291 284 292 305 320 312 311 312 2 23 91 49 27 304 297 302 306 294 270 270 298 304 311 316 320 323 325 326 323 320 321 324 324 325 324 323 323 322 322 320 322 325 330 327 327 328 330 329 328 325 329 330 324 321 320 319 317 314 312 311 307 306 308 309 309 309 308 308 307 304 300 296 295 293 288 286 285 285 281 279 278
98 175 14 330 275 270 290 292 302 313 305 309 312 316 138 74 113 184 292 293 302 302 284 277 299 303 301 309 317 323 325 325 324 321 319 322 321 322 323 321 321 321 322 322 324 327 330 327 324 328 330 331 330 328 331 330 324 322 324 325 325 326 329 329 324 320 316 314 310 307 307 308 308 307 303 300 296 291 287 280 277 279 280 279 277 278
319 359 337 315 294 294 294 291 301 311 304 304 308 312 311 319 319 315 291 292 304 288 289 303 306 302 303 311 318 325 327 321 320 323 321 320 319 318 319 321 321 321 322 327 330 330 326 325 328 327 331 331 331 334 333 328 327 332 334 333 329 326 322 318 317 315 309 304 301 302 302 302 302 300 297 295 293 289 286 282 278 278 281 281 279 280
245 134 348 244 297 303 301 266 303 316 319 322 90 68 320 309 312 302 293 290 293 282 282 291 300 299 301 313 322 325 323 321 321 320 321 320 319 320 320 319 318 322 327 328 326 324 328 327 329 330 330 332 335 334 332 336 344 344 339 334 329 323 319 316 310 307 306 305 301 300 299 298 296 293 292 289 289 289 287 285 282 280 280 281 278 276
353 354 360 8 311 301 287 290 314 323 330 340 145 4 334 310 302 288 289 304 309 294 296 300 298 298 312 322 320 321 321 320 321 322 321 320 320 320 319 320 322 324 325 326 327 326 322 327 331 328 329 336 338 340 347 346 335 329 325 322 319 314 310 308 302 302 300 299 297 297 296 293 290 289 288 287 287 290 289 286 283 277 274 275 275 273
23 344 135 82 298 290 342 331 318 329 133 109 96 344 336 336 332 332 304 296 298 300 306 307 310 315 324 326 322 322 323 323 324 323 323 321 317 316 316 318 322 324 324 325 325 325 326 327 330 332 331 336 342 343 338 329 324 323 322 323 322 319 315 310 307 305 306 306 303 298 297 295 294 291 289 289 290 294 292 286 278 272 270 272 273 275
16 345 344 351 322 304 329 328 316 313 173 189 64 7 353 339 327 314 306 303 304 309 307 313 313 320 323 326 323 322 323 322 322 321 319 319 314 312 316 323 324 322 324 324 326 327 327 328 327 329 336 346 342 332 327 325 322 325 326 325 321 317 317 316 313 311 308 305 304 307 307 309 309 307 307 304 298 292 287 283 276 270 266 267 271 276
117 9 348 6 337 299 323 330 305 286 8 347 47 89 23 337 327 320 321 322 317 323 310 306 309 321 325 322 320 319 320 322 321 317 313 311 310 312 318 323 322 320 319 321 322 323 324 325 328 341 349 336 330 325 320 320 323 326 327 324 319 315 314 312 310 308 311 317 317 313 310 307 305 302 298 295 293 288 283 277 271 269 269 275 277 276
356 319 341 175 298 313 309 320 342 26 344 82 136 90 351 314 312 319 316 314 315 314 312 314 323 325 323 320 318 318 317 317 320 313 310 309 312 315 320 319 318 321 322 322 322 325 324 325 339 344 334 333 327 324 325 324 332 327 321 320 315 312 315 314 315 321 323 317 316 315 313 310 308 305 302 299 293 289 284 275 276 277 276 278 277 277
354 356 311 205 285 266 327 359 350 338 315 331 178 191 313 305 316 317 302 308 312 316 321 324 325 324 323 320 319 318 317 316 314 308 307 311 317 320 319 318 318 319 318 320 322 322 324 343 349 337 332 328 329 325 327 326 325 320 314 312 310 313 324 329 324 318 316 319 318 318 319 317 312 305 298 294 291 291 295 298 291 283 277 277 282 280
17 237 58 337 64 1 319 305 256 273 288 101 39 350 340 342 340 335 320 312 320 324 341 330 326 324 320 319 319 321 320 315 309 306 314 317 318 318 318 317 319 318 317 316 320 320 334 352 336 333 328 327 325 327 324 327 322 318 318 315 317 333 331 324 320 320 320 319 323 326 319 308 297 294 292 292 293 296 297 294 287 284 281 286 287 284
11 29 332 337 341 345 306 310 315 323 347 336 339 316 334 327 330 322 312 301 323 340 339 330 323 322 321 320 321 323 320 316 311 312 320 323 320 318 316 313 315 315 315 318 316 332 350 333 330 326 324 323 327 329 328 323 318 318 317 320 332 330 325 324 320 320 317 320 326 319 311 307 304 298 292 293 294 294 292 291 293 292 295 297 293 285
71 117 317 345 323 316 343 336 327 313 303 56 340 326 333 337 326 320 306 297 335 337 333 328 322 320 321 322 322 325 323 316 311 310 318 321 319 317 315 315 314 315 315 315 329 350 335 331 326 324 324 326 327 331 323 320 321 319 324 333 328 324 322 321 323 320 318 322 321 315 309 304 303 298 295 293 290 287 287 292 302 304 298 291 288 285
331 33 302 347 358 1 314 325 316 185 245 240 338 330 337 330 325 315 318 311 335 332 329 325 322 320 322 322 321 321 324 318 315 314 316 316 317 317 318 320 320 320 320 332 7 339 332 326 325 323 328 330 329 326 323 324 322 326 333 327 324 323 324 325 323 319 322 323 318 310 306 304 302 300 295 288 283 282 285 301 306 304 299 294 289 287
346 345 22 6 333 333 338 311 295 288 296 309 315 342 332 331 323 333 325 319 328 326 323 322 319 320 321 319 320 316 314 308 305 304 310 313 315 316 317 316 315 319 326 353 336 336 330 328 327 328 329 330 328 328 327 325 326 329 326 322 323 324 324 323 325 325 324 320 313 309 306 304 300 297 293 286 279 278 291 300 300 299 295 293 292 289
28 322 227 305 349 342 347 314 285 258 192 342 340 334 335 344 345 335 320 322 320 319 319 319 320 318 318 316 315 312 310 309 307 308 309 311 314 312 314 317 317 323 355 335 332 332 328 326 334 334 326 324 328 331 333 330 326 322 321 323 322 323 324 328 326 324 321 317 313 310 307 304 300 294 288 284 279 290 303 298 292 289 289 292 291 290
1 327 331 346 326 313 338 299 318 319 315 344 332 327 351 339 326 320 320 319 320 317 318 324 323 322 322 317 316 314 312 313 311 309 311 314 314 316 317 318 323 342 340 341 334 330 332 335 332 326 326 329 331 332 329 325 321 320 322 321 323 324 328 327 326 324 320 316 312 310 308 304 300 295 290 285 294 306 297 292 291 293 295 295 299 300
165 309 333 275 106 323 325 332 242 266 312 326 334 329 329 324 325 323 325 318 319 323 326 326 326 324 321 319 318 317 316 315 316 317 316 315 316 313 315 318 332 334 335 333 328 323 339 333 326 325 331 335 333 332 329 323 321 321 321 322 324 327 328 327 328 323 319 317 314 311 308 304 300 295 289 288 301 300 294 292 295 298 302 305 302 305
155 295 288 293 146 159 263 270 281 286 304 325 327 318 319 325 328 327 323 321 323 327 329 325 325 323 320 321 319 318 317 318 318 318 317 316 317 319 319 328 335 333 333 331 329 337 336 327 323 328 334 337 335 333 328 325 322 321 322 323 325 331 330 330 328 324 321 320 316 312 308 304 302 293 283 286 299 298 299 297 300 303 307 307 306 302
74 235 311 290 284 284 269 256 273 305 321 317 317 315 323 329 329 331 330 327 328 326 329 326 323 322 321 322 321 318 318 318 319 318 318 317 318 319 324 334 329 327 329 329 331 337 328 325 324 331 333 335 336 330 327 325 325 323 323 323 328 331 331 329 325 324 323 319 315 313 311 315 317 323 327 322 315 306 305 307 304 301 303 307 301 301
144 353 319 275 316 333 309 344 320 316 321 316 313 322 327 334 334 334 332 330 326 327 326 326 325 322 322 322 321 319 318 321 319 318 317 316 320 325 337 332 326 328 331 327 333 333 330 328 329 332 335 335 335 332 329 327 327 325 323 325 331 331 329 327 325 324 322 319 316 316 318 323 325 327 326 325 322 314 310 306 299 295 303 305 302 310
19 168 285 326 315 294 285 297 311 323 314 314 330 332 335 334 335 335 332 327 327 326 327 325 326 323 324 323 324 321 318 318 318 320 322 324 323 332 334 331 324 324 329 327 327 330 328 329 332 333 334 333 332 331 330 330 331 330 328 328 331 330 327 327 327 325 321 319 316 316 320 322 324 326 324 324 324 320 313 308 305 300 303 307 309 310
301 279 304 306 288 281 282 307 331 325 323 334 334 330 329 332 334 332 332 333 331 329 330 328 326 325 323 322 323 322 320 322 323 323 323 324 329 337 332 327 327 330 326 322 330 332 331 332 332 332 332 330 330 330 331 332 332 331 328 329 331 330 327 326 325 322 318 317 316 315 318 320 322 321 323 320 321 320 314 312 311 312 305 312 312 308
330 331 317 310 312 322 332 327 337 335 327 327 325 327 327 331 330 330 330 328 333 333 331 328 327 326 326 325 326 324 322 321 321 327 329 330 329 328 329 328 329 330 326 325 328 330 330 332 332 330 329 329 330 329 331 331 330 329 328 330 329 328 325 325 323 323 322 321 319 319 320 322 322 323 323 322 319 319 316 313 312 293 303 311 327 324
347 320 332 329 317 294 303 312 320 310 302 309 315 319 322 323 327 328 328 330 332 332 329 328 326 327 326 324 324 324 324 325 325 326 327 331 329 328 327 329 328 327 327 329 329 330 331 331 330 330 329 329 330 331 331 330 331 330 331 333 328 324 323 324 324 323 323 324 322 321 321 321 322 322 320 318 317 315 315 315 326 327 314 349 343 320